Theta_e
296 295 295 295 294 294 293 293 292 292 291 291 291 290 290 290 290 289 289 288 287 287 286 286 285 285 285 284 284 284 283 282 282 281 280 279 279 279 279 278 277 277 277 277 277 276 276 275 275 275 275 275 275 275 275 275 275 275 275 275 275 275 275 276 276 276 276 277 277 277 277 276 276 276 276 276 276 276 276 276 276 276 276 276 276
296 295 295 295 294 294 293 292 292 292 291 291 290 290 290 290 289 289 288 287 287 286 286 285 285 285 285 284 284 283 283 282 281 280 279 279 279 278 278 277 277 277 277 276 276 276 275 275 275 275 275 274 274 274 274 274 274 274 274 274 274 274 275 275 275 276 276 276 276 276 276 276 276 276 276 276 276 276 276 276 276 276 276 276 276
296 295 295 294 294 294 293 292 292 291 291 290 290 289 289 289 289 288 288 287 286 286 285 285 285 284 284 284 283 282 281 281 280 279 279 279 279 278 278 277 277 276 276 276 275 275 275 274 274 274 274 274 274 274 274 274 274 274 274 274 274 274 274 275 275 275 275 275 275 275 276 276 276 276 276 276 276 276 276 276 276 276 276 276 276
295 295 295 294 294 293 292 292 291 291 290 290 289 289 288 288 288 288 287 286 286 285 285 284 284 283 283 283 282 282 281 280 280 279 279 279 279 278 277 277 276 276 276 275 275 275 274 274 274 274 274 273 273 273 273 273 273 273 273 273 274 274 274 274 275 275 275 275 275 275 276 276 276 276 276 276 276 276 276 276 276 276 276 276 276
295 295 294 294 293 293 292 292 291 290 290 289 289 288 287 287 287 286 286 286 285 284 284 283 283 283 283 283 283 282 281 280 279 279 279 279 278 278 277 277 276 276 275 275 274 274 274 274 273 273 273 273 273 273 273 273 273 273 274 274 274 274 275 275 275 275 275 275 275 275 276 276 276 276 276 276 276 276 276 276 276 276 276 276 276
295 294 294 293 292 292 292 291 291 290 289 289 288 287 286 286 286 285 285 285 284 283 283 282 282 283 283 283 283 282 281 280 279 279 279 278 278 277 277 276 276 275 275 274 274 274 273 273 273 273 273 273 273 273 274 274 274 274 274 275 275 275 275 275 275 275 275 275 276 276 276 276 276 276 276 276 276 276 276 276 276 276 276 276 276
294 294 293 293 292 292 291 291 290 290 289 287 287 286 285 285 285 285 284 284 283 283 282 282 282 283 283 283 282 281 280 279 279 279 279 278 277 277 276 276 275 274 274 274 273 273 273 273 273 273 274 274 274 274 274 274 275 275 275 275 275 275 275 276 276 276 276 276 276 276 276 276 276 276 276 276 276 276 276 276 276 276 276 277 277
294 293 293 292 291 291 291 291 290 289 288 286 285 285 284 284 284 284 284 283 283 283 282 282 282 282 282 282 281 280 279 279 279 278 278 278 277 276 276 275 274 274 273 273 273 273 273 274 274 274 274 274 275 275 275 275 275 275 276 276 276 276 276 276 276 276 276 276 276 276 276 276 277 277 277 277 276 276 276 277 277 277 277 277 277
293 293 292 291 291 291 290 289 288 287 286 285 284 284 283 283 283 283 283 282 282 282 282 281 282 282 281 280 280 279 279 278 278 278 278 277 276 276 275 274 274 273 273 273 274 274 274 274 275 275 275 275 276 276 276 277 277 277 277 277 277 277 277 277 277 277 277 276 276 276 277 277 277 277 277 277 277 277 277 277 277 277 277 277 277
293 292 291 291 291 290 289 288 287 286 285 284 283 283 282 282 282 282 282 281 281 281 280 280 281 281 281 279 279 278 278 278 278 278 277 277 276 275 275 274 274 274 274 274 274 275 275 275 275 276 276 276 277 277 277 277 277 277 277 278 278 278 278 278 278 278 278 277 277 277 277 277 277 277 277 277 277 277 277 277 277 277 278 277 277
292 292 291 291 290 289 288 287 286 285 284 283 283 282 282 281 281 281 281 280 280 280 280 280 280 280 280 279 278 278 278 278 278 277 276 276 276 275 275 275 275 275 275 275 275 275 276 276 276 276 276 276 276 276 276 276 277 277 277 277 277 278 278 278 278 278 278 278 278 278 278 278 278 278 278 278 278 278 278 278 278 278 278 278 277
292 291 291 290 289 288 287 286 285 284 283 283 282 281 281 281 280 280 280 279 279 279 278 278 278 278 278 278 278 278 278 278 277 276 276 276 276 276 276 276 276 275 276 276 276 276 276 276 276 275 275 275 275 275 275 276 276 276 276 277 277 277 278 278 278 278 278 278 278 278 278 278 278 278 278 278 278 278 278 278 278 278 278 278 278
291 291 290 289 289 288 286 285 284 283 282 282 281 281 280 280 279 279 279 278 278 278 277 277 278 278 278 278 277 277 277 277 276 276 275 276 277 277 276 276 276 276 276 276 276 276 275 275 275 275 274 275 275 275 275 275 275 276 276 276 277 277 277 277 278 278 278 278 278 278 278 278 278 278 277 277 278 278 278 278 278 278 278 278 278
291 290 289 289 288 287 285 284 283 282 281 281 280 280 279 279 279 279 278 277 277 276 276 276 277 277 277 277 277 277 277 276 276 275 275 276 277 277 277 276 276 276 276 276 275 275 274 274 274 274 274 274 274 275 275 275 276 276 276 277 277 277 277 277 277 277 277 277 277 277 277 277 277 277 277 277 277 278 278 278 278 278 278 278 278
290 289 288 287 287 285 284 283 282 281 280 280 279 279 278 278 278 278 277 277 277 276 276 276 277 277 277 277 277 277 277 276 275 274 275 275 276 277 277 276 276 276 275 274 274 274 274 274 274 274 274 274 275 275 276 276 276 276 277 277 277 276 277 276 276 277 277 277 277 277 277 277 278 278 278 278 278 278 278 278 278 278 278 278 278
288 288 287 286 285 284 283 282 281 280 280 279 278 278 278 277 277 277 276 276 276 276 276 276 276 276 276 276 276 276 276 275 274 274 274 275 276 277 276 276 275 274 274 274 274 273 274 274 274 274 274 275 275 275 276 276 277 277 277 277 277 277 277 276 277 277 277 277 277 277 278 278 278 278 278 278 279 279 279 279 278 278 278 278 278
288 287 286 285 284 284 283 282 281 280 279 278 278 277 277 277 276 276 275 275 274 275 275 275 276 276 276 276 276 276 275 274 274 274 274 275 276 276 275 275 274 274 273 273 273 273 274 274 274 275 275 275 275 275 276 276 276 277 277 277 277 277 276 276 276 276 276 276 276 276 277 277 277 278 278 278 279 279 280 280 280 279 279 279 279
287 286 286 285 284 283 282 282 280 279 278 278 277 277 276 276 276 276 275 275 274 274 275 275 275 276 276 276 276 275 275 274 274 274 274 275 276 275 274 274 273 273 273 273 273 274 274 274 275 275 275 275 275 275 276 276 277 277 277 277 276 276 276 275 274 274 275 275 275 276 275 275 275 275 275 276 277 277 278 280 280 280 280 280 280
287 286 286 285 284 283 282 281 280 279 278 278 277 277 276 276 275 275 275 274 274 274 275 275 275 275 275 275 275 275 274 273 274 274 274 275 275 275 274 274 273 273 273 273 274 274 275 275 275 275 274 274 275 275 276 276 277 277 277 276 276 275 274 273 274 274 275 275 274 273 273 272 272 272 273 274 275 276 277 278 279 280 280 281 281
287 286 285 284 283 282 281 281 280 279 278 277 277 276 276 275 275 274 274 274 274 274 274 275 275 274 274 274 274 274 273 273 274 274 274 275 275 275 274 274 273 273 273 274 274 275 275 274 274 274 274 274 274 275 276 276 276 276 276 275 274 273 273 274 274 274 274 272 271 271 271 271 271 272 273 274 275 276 277 278 279 280 280 281 281
286 285 284 283 282 281 281 280 280 279 278 277 276 275 275 275 274 274 273 273 274 273 273 274 273 273 273 273 273 273 273 273 273 273 273 274 275 275 274 274 273 273 274 275 275 275 274 274 273 273 273 273 274 275 276 276 276 275 274 273 273 273 274 274 273 272 271 270 270 270 271 271 271 272 273 274 275 277 279 280 280 280 280 280 281
285 285 283 282 282 281 280 279 279 278 277 276 276 275 274 274 273 273 273 273 272 272 272 272 272 272 272 272 272 273 273 273 272 273 273 274 274 274 274 274 274 275 275 275 275 274 273 273 272 272 273 274 275 275 274 275 274 273 273 273 273 274 274 273 271 270 269 270 270 270 271 271 272 272 273 274 275 276 277 278 280 281 281 281 281
285 284 283 281 281 280 279 279 278 277 276 276 275 274 273 272 272 272 272 272 271 270 270 270 270 270 270 270 271 272 272 272 272 272 272 274 274 274 274 275 275 275 275 274 274 273 272 272 272 272 273 274 274 273 273 273 272 272 272 273 273 273 272 270 269 269 269 270 270 271 271 271 272 272 273 273 274 274 275 275 276 278 280 281 281
284 282 281 280 279 279 278 278 277 276 276 275 274 273 272 272 271 271 271 271 270 270 269 269 269 269 269 269 270 271 271 271 271 272 272 273 274 274 274 275 275 275 274 274 273 272 271 272 272 273 273 273 272 272 272 271 270 271 272 272 272 270 269 268 268 269 269 270 270 271 271 271 272 272 272 272 273 273 273 274 275 277 279 281 282
282 281 280 279 278 278 277 276 276 275 275 274 274 272 271 271 270 270 270 270 270 269 269 269 269 269 269 269 270 270 270 270 271 271 272 272 273 274 274 274 274 274 274 273 272 271 272 272 272 272 271 271 270 270 269 269 269 270 270 270 269 268 268 268 268 269 269 270 270 271 271 271 271 272 272 272 272 272 273 274 275 276 278 281 282
281 279 278 278 277 276 276 275 274 274 273 273 273 272 271 271 270 270 270 270 270 270 269 269 270 270 270 270 270 270 270 270 270 271 271 272 272 273 273 273 273 273 273 272 271 271 272 271 270 270 269 269 269 268 268 268 268 268 268 268 267 267 267 268 268 269 269 270 270 270 271 271 271 271 271 272 272 272 273 273 274 275 276 279 282
279 278 277 276 275 275 274 274 273 273 272 272 272 272 271 270 270 269 269 269 270 270 270 270 270 270 270 270 270 270 270 269 270 270 271 272 272 272 272 272 272 272 271 271 271 271 271 270 269 269 268 268 268 267 267 267 266 266 266 267 267 267 267 268 268 269 269 269 270 270 270 271 271 271 271 272 272 272 272 272 273 274 275 277 280
279 277 276 275 274 273 273 273 272 271 271 271 271 270 270 270 270 270 270 270 270 270 270 270 270 270 270 270 269 269 269 269 270 271 272 272 272 272 272 271 271 271 271 271 271 271 270 269 269 269 268 267 267 266 266 266 266 266 266 266 267 267 267 268 268 268 269 269 269 270 270 271 271 271 271 271 271 271 271 271 272 273 274 275 278
278 276 274 273 272 272 272 272 271 271 271 271 270 270 270 270 270 270 271 271 272 272 271 271 271 271 270 270 270 269 268 269 270 271 272 272 272 272 272 272 271 271 271 271 271 270 269 269 268 267 266 265 265 265 265 265 265 265 266 266 266 267 267 267 268 268 268 269 269 270 270 271 271 271 271 271 271 271 271 271 271 272 273 274 276
276 274 273 272 271 271 271 271 270 270 270 270 269 269 269 270 270 270 271 271 271 272 272 272 272 272 271 270 270 271 270 270 271 272 273 273 273 273 272 272 272 271 271 270 269 268 268 268 267 265 265 264 264 264 264 264 265 265 265 266 266 266 267 267 268 268 268 269 269 270 270 271 271 271 271 271 270 270 270 271 271 271 272 273 274
274 273 272 271 271 271 271 270 270 270 270 269 269 269 269 270 270 270 271 271 271 272 272 272 272 272 272 271 270 271 272 272 272 273 273 273 273 272 272 271 271 271 270 269 268 267 267 266 265 264 264 263 263 263 264 264 264 264 265 265 266 266 267 267 267 268 268 269 269 270 271 271 271 271 271 270 270 270 270 270 271 271 271 272 273
275 273 272 271 271 271 270 270 270 269 269 269 269 269 270 270 271 271 271 272 272 273 273 272 272 271 271 271 270 271 272 273 273 273 273 272 272 272 271 271 271 270 268 268 268 267 266 264 264 264 263 263 263 263 263 263 264 264 264 265 265 266 266 267 267 268 268 269 269 270 271 271 271 271 271 270 270 270 270 270 270 270 271 271 272
277 275 273 272 271 270 270 270 269 269 269 269 269 269 270 271 271 272 273 273 274 273 273 273 272 271 271 271 270 271 272 273 273 272 272 272 271 271 270 270 269 268 267 268 268 267 266 264 263 263 262 262 262 262 262 263 263 264 264 265 265 265 266 266 267 267 268 269 270 270 271 271 271 271 270 270 270 270 270 270 270 270 270 271 271
278 276 274 272 271 270 270 269 269 269 269 269 269 270 271 271 272 273 273 274 274 274 273 273 273 272 272 271 271 272 273 273 272 272 271 271 270 269 269 268 268 267 267 267 267 267 265 264 263 262 262 262 261 261 262 262 263 263 264 264 264 265 266 266 267 267 268 269 270 271 271 271 271 270 270 270 270 270 269 269 270 270 270 270 271
278 277 275 273 271 271 270 269 269 269 269 269 270 270 271 271 272 273 273 274 273 273 274 274 273 273 272 272 272 272 273 272 272 271 271 270 269 268 268 267 267 267 267 267 266 266 265 263 263 262 262 261 261 261 261 262 262 263 263 263 264 265 265 266 267 268 269 269 270 271 271 271 270 270 270 270 269 269 269 269 270 270 270 270 271
277 276 274 272 271 271 270 269 269 269 270 270 270 270 271 271 272 272 273 273 273 272 272 273 273 273 272 272 272 273 272 272 271 270 270 269 268 267 267 267 267 267 267 266 266 266 265 263 262 262 262 261 261 261 261 261 262 262 263 263 264 265 265 266 267 268 269 269 270 271 271 270 270 270 270 270 269 269 269 269 269 270 270 270 271
276 275 274 272 271 271 270 269 269 270 270 270 270 270 271 271 271 272 272 271 271 270 270 271 272 272 271 271 272 272 271 271 270 269 268 267 267 267 267 267 267 266 266 266 266 266 266 264 263 263 263 262 262 261 261 261 261 262 263 263 264 265 265 267 268 268 269 269 270 271 270 270 270 270 270 269 269 269 269 269 269 270 270 270 270
276 275 274 272 271 270 270 269 269 270 270 270 270 270 270 270 271 271 271 270 269 269 269 269 270 269 269 270 271 271 270 270 268 267 266 266 266 266 266 266 266 266 266 266 266 265 265 265 264 264 263 263 262 261 261 261 261 262 262 263 264 265 266 267 268 268 269 270 271 271 270 270 270 269 269 269 269 269 269 269 269 269 270 270 270
275 274 273 272 270 270 269 269 269 270 270 270 270 270 270 270 270 270 269 268 267 267 267 267 267 267 267 268 269 269 268 267 266 265 265 265 265 266 265 266 265 265 265 265 265 265 265 265 264 264 264 263 262 261 261 261 261 262 263 263 264 265 266 267 268 268 269 270 271 270 270 270 269 269 269 269 269 269 269 269 269 269 270 270 270
274 273 272 271 271 270 269 269 269 270 269 269 269 269 269 269 269 269 268 267 266 265 266 266 265 265 266 267 267 267 267 266 265 265 265 265 265 265 265 265 265 265 265 265 265 264 264 264 264 264 264 264 263 262 262 262 262 262 263 264 264 265 266 267 268 268 269 270 271 270 270 269 269 269 269 269 269 269 269 269 269 269 269 269 270
273 272 272 271 270 270 269 269 269 269 269 269 269 269 268 268 268 267 267 265 265 264 264 264 264 264 265 266 266 267 266 266 265 265 265 265 265 265 265 265 265 265 265 265 265 264 264 264 264 264 264 264 263 263 262 262 262 262 263 264 264 265 266 267 268 268 269 270 271 270 269 269 269 269 269 269 269 269 269 269 269 269 269 269 270
272 272 271 271 270 270 269 269 269 269 268 268 268 267 267 266 266 266 265 264 264 263 263 263 263 263 265 266 266 266 266 266 265 265 265 265 265 264 264 264 264 264 264 264 264 264 264 265 265 264 264 264 264 263 263 262 262 262 263 263 264 265 266 267 268 269 270 271 271 270 269 269 269 269 269 269 269 269 269 269 269 269 269 269 269
272 271 271 270 270 269 269 269 269 268 267 267 267 266 266 265 265 265 264 263 263 263 262 262 262 264 266 267 267 266 265 266 265 265 265 265 264 264 264 264 264 264 264 264 264 264 264 264 265 265 265 265 264 264 263 263 263 262 263 263 264 265 266 267 268 269 270 271 271 270 269 268 268 268 268 268 268 269 269 269 269 269 269 269 269
272 271 270 270 270 269 269 268 268 267 267 266 266 265 265 265 264 264 264 263 263 262 262 262 262 264 266 267 266 265 264 265 265 265 265 264 264 264 264 264 264 264 264 264 264 264 264 264 265 265 265 265 265 265 264 264 264 264 263 264 264 265 266 267 268 269 270 271 270 270 269 268 268 268 268 268 268 268 269 269 269 269 269 269 269
271 270 270 269 269 268 268 267 267 266 266 265 265 264 264 264 264 264 263 262 262 262 261 262 263 264 266 266 265 264 264 264 264 264 264 264 264 264 264 264 264 264 264 264 264 264 264 264 264 265 265 265 265 265 265 265 265 265 265 265 264 265 266 267 268 269 270 271 270 269 269 268 268 268 268 268 268 268 268 268 268 268 268 269 269
271 270 269 268 268 267 267 266 266 265 265 264 264 264 264 263 263 263 262 262 261 261 261 261 262 263 264 264 264 264 264 264 264 264 264 264 264 264 264 264 264 264 264 264 264 264 264 264 264 264 265 265 265 265 265 265 266 266 266 266 265 266 267 268 269 270 271 271 270 269 268 268 268 268 268 268 268 268 268 268 268 268 268 269 269
270 269 268 267 267 266 266 265 265 264 264 264 263 263 263 263 262 262 262 261 261 260 260 261 261 262 262 263 263 263 263 264 264 264 264 264 264 264 264 264 264 264 264 264 264 264 264 264 264 264 264 265 265 265 265 265 266 266 266 266 266 267 267 268 269 270 271 271 270 269 268 268 267 267 268 268 268 268 268 268 268 268 268 268 269
268 268 267 267 266 265 265 265 264 264 263 263 263 262 262 262 261 261 261 260 260 260 260 260 260 261 262 263 263 263 263 263 264 264 264 264 264 263 263 264 264 264 264 264 264 264 264 264 264 264 264 265 265 265 265 265 266 266 266 266 267 267 268 269 270 271 272 271 270 269 268 268 267 267 267 268 268 268 268 268 268 268 268 268 268
267 267 266 266 265 265 264 264 264 263 263 262 262 261 261 261 260 260 260 260 260 260 260 260 261 262 262 263 263 263 263 263 264 264 264 264 263 263 263 264 264 264 264 264 264 264 264 264 264 264 264 265 265 265 265 265 266 266 266 266 267 268 269 269 270 271 272 271 270 269 268 267 267 267 267 267 268 268 268 268 268 268 268 268 268
267 266 266 265 265 264 264 264 264 263 262 262 261 261 260 260 260 259 259 259 259 260 260 261 262 262 262 263 263 263 263 263 263 264 263 263 263 263 263 263 263 264 264 264 264 264 264 264 264 264 264 264 265 265 265 265 266 266 266 266 267 268 269 270 271 271 271 271 270 269 268 267 267 267 267 267 267 267 268 268 268 268 268 268 268
266 265 265 264 264 264 263 263 262 262 261 261 261 260 260 259 259 259 259 260 260 260 261 262 262 262 263 263 263 263 263 263 263 263 263 263 263 263 263 263 263 264 264 264 264 264 264 264 264 264 264 264 265 265 265 265 265 266 266 266 267 268 269 270 271 271 271 271 270 269 268 267 267 267 267 267 267 267 267 268 268 268 268 268 268
Wind_Speed
42 43 44 43 42 42 43 43 42 41 40 41 42 43 43 43 42 41 40 40 40 39 38 36 34 31 29 27 25 23 21 19 17 16 16 15 15 14 14 15 15 16 16 16 17 18 19 20 21 22 21 22 23 23 23 23 22 22 21 22 24 22 24 25 17 22 42 48 48 56 54 48 54 53 44 47 47 39 39 43 42 41 43 44 45
43 45 44 43 43 43 41 40 40 40 40 41 42 43 44 44 44 43 42 42 41 41 39 37 34 31 29 27 25 23 21 19 17 16 16 15 15 15 15 15 15 16 16 17 18 18 19 20 21 22 21 22 23 23 23 23 21 22 22 21 24 25 23 27 25 18 29 45 49 54 57 49 49 54 49 46 48 43 39 42 44 43 44 44 45
44 43 42 42 42 40 38 39 39 40 41 41 42 43 44 44 45 44 44 43 42 40 39 37 34 31 29 27 25 22 20 17 16 16 16 15 15 15 15 15 15 16 16 17 18 18 19 20 22 22 21 22 23 23 23 23 22 23 24 23 24 27 25 25 28 23 23 38 47 49 53 51 47 49 48 46 48 46 43 45 45 46 46 45 44
40 39 40 40 39 38 38 39 40 41 42 43 43 44 44 44 45 45 44 43 42 40 38 35 33 31 29 27 25 22 19 17 16 16 16 15 15 15 14 14 15 15 17 18 19 19 20 21 22 22 22 22 23 24 23 23 25 24 25 26 25 27 28 26 29 30 27 32 43 45 47 48 47 46 45 46 47 46 46 47 46 47 48 46 45
39 39 39 38 38 39 40 40 42 43 44 44 44 43 43 43 44 44 43 42 41 40 37 35 33 31 29 27 25 22 19 17 16 16 16 15 15 14 14 14 15 15 17 18 19 20 21 22 23 22 22 23 23 24 25 24 25 25 25 27 27 28 31 31 32 34 32 32 40 44 43 44 47 46 42 41 44 44 43 46 48 47 48 48 47
37 37 37 37 38 40 41 42 44 45 45 44 43 42 41 42 42 43 43 42 40 39 38 36 34 32 29 27 24 21 18 17 17 16 15 15 14 13 13 14 15 16 17 19 20 21 21 22 23 23 22 24 25 24 25 25 25 26 27 29 31 32 32 32 32 33 34 36 39 42 43 43 44 44 41 38 39 38 37 43 49 48 44 45 49
36 36 37 38 39 40 42 44 45 46 44 42 41 40 41 41 41 42 41 41 40 39 38 36 34 31 29 26 23 21 19 18 18 16 15 14 14 13 13 14 15 16 18 20 20 20 22 22 23 23 22 24 26 25 26 27 27 28 29 30 31 31 30 30 30 32 34 36 38 39 41 42 41 42 43 39 36 37 34 33 41 45 40 40 46
36 37 38 38 39 41 43 44 44 43 41 39 39 39 40 40 40 41 40 40 40 39 38 36 33 30 28 25 22 20 19 19 17 16 15 14 13 13 14 14 15 17 18 20 20 20 21 22 21 22 23 24 25 25 26 27 28 28 28 28 29 30 30 29 28 29 31 33 34 34 35 37 38 38 40 36 31 33 32 30 34 41 40 40 46
36 36 37 38 40 40 40 40 39 38 38 37 38 38 39 39 39 40 40 39 39 38 37 35 33 30 27 24 22 21 20 19 17 15 15 14 14 13 13 13 14 17 19 19 20 19 18 19 20 20 22 23 23 24 25 27 28 29 28 27 28 29 29 29 27 26 27 26 26 27 27 29 31 31 32 31 29 31 35 35 35 40 43 45 48
36 36 37 39 38 37 36 36 36 37 37 38 38 38 38 39 39 39 38 38 37 36 35 34 32 30 27 25 23 21 21 19 16 15 15 14 13 12 12 13 14 16 18 17 16 15 15 17 19 20 20 22 22 23 26 28 29 31 30 29 29 29 30 30 28 27 25 21 21 21 18 19 25 28 28 31 33 35 37 36 35 37 37 36 40
36 37 38 37 35 34 34 35 35 37 38 38 38 39 39 39 39 39 38 37 37 36 35 33 31 29 27 25 23 22 21 18 16 15 15 13 12 11 11 13 14 14 15 14 14 14 15 16 16 17 19 21 23 25 26 27 28 30 31 31 32 32 33 33 31 30 27 24 26 26 20 20 29 35 34 32 33 33 34 35 34 31 26 18 20
35 35 35 34 34 35 35 36 37 38 38 39 39 39 39 39 39 39 38 38 37 36 35 33 31 29 27 25 24 23 21 18 16 15 15 14 13 13 13 14 14 13 14 13 13 13 13 14 14 16 19 21 23 25 26 28 29 29 31 32 32 33 34 35 36 34 31 28 28 30 28 27 32 39 39 35 34 36 36 36 34 33 28 19 16
34 34 34 34 36 36 37 38 38 39 39 39 40 40 40 40 40 40 39 38 37 36 35 33 31 30 28 26 25 23 20 18 17 16 15 15 14 14 15 15 13 14 13 12 12 12 12 14 16 17 19 20 22 25 27 29 29 29 31 33 34 35 34 35 37 38 38 36 33 34 38 36 34 40 43 38 37 39 36 35 36 35 33 27 27
33 33 34 35 36 37 38 39 39 38 39 39 40 40 41 41 40 40 40 38 37 36 35 34 32 30 29 27 25 23 20 18 18 17 16 15 13 13 15 14 13 14 13 11 11 12 13 15 17 18 19 21 23 25 27 29 31 32 33 34 34 34 34 36 38 39 41 41 39 42 46 45 43 47 50 45 44 44 40 39 39 37 37 40 45
32 33 34 35 36 37 38 38 37 37 38 40 41 41 41 41 41 41 40 40 40 39 37 36 33 31 29 27 25 23 20 19 18 18 17 14 12 13 14 14 14 13 11 9 11 13 15 16 18 19 21 21 23 24 26 29 31 32 33 34 36 37 37 38 38 38 40 40 41 42 43 45 46 47 50 50 48 50 50 49 48 46 46 45 48
31 33 34 35 37 38 38 38 37 38 39 40 40 41 41 42 42 41 40 39 40 39 38 36 35 32 29 27 25 22 20 19 19 18 17 14 13 13 14 14 13 10 8 9 11 13 15 16 18 20 20 21 23 24 25 28 30 32 34 37 39 38 37 37 36 36 36 36 39 40 41 44 47 48 52 51 48 49 50 47 47 45 37 28 28
31 33 33 34 36 38 39 39 38 38 40 41 41 42 42 42 43 42 41 39 39 39 37 36 34 32 30 28 25 23 22 20 19 19 17 15 14 15 15 13 11 9 8 10 11 13 15 17 17 19 20 21 23 24 25 27 30 33 35 37 37 36 36 36 34 33 34 35 39 42 42 45 47 48 51 50 48 51 46 37 37 34 23 14 13
30 31 33 35 37 38 40 41 40 41 42 43 43 43 43 44 44 44 44 42 41 40 38 35 33 30 29 27 25 23 22 21 20 19 17 15 14 14 14 12 10 9 9 10 11 13 15 16 17 18 20 21 22 24 25 27 30 33 32 33 35 35 35 35 33 35 38 37 37 38 39 42 45 47 50 50 50 51 45 38 40 33 17 12 12
32 34 36 37 39 40 41 42 42 43 43 44 44 44 45 44 44 43 43 42 40 39 38 35 33 30 28 27 25 23 22 21 20 19 16 14 14 14 12 11 9 9 9 11 13 13 13 14 16 17 19 20 21 23 25 27 30 32 31 31 31 32 33 35 35 37 38 36 35 37 40 44 46 46 48 48 47 48 47 47 48 38 23 16 15
34 34 34 35 38 40 41 42 43 44 44 43 42 43 42 42 41 41 39 39 39 39 38 36 34 32 29 27 25 24 23 22 21 19 16 14 14 12 11 10 9 9 10 12 14 13 12 14 15 16 17 19 21 24 26 27 28 30 30 28 27 30 35 37 37 37 37 37 39 42 45 46 45 42 41 42 41 43 45 47 46 42 33 26 21
31 30 32 34 37 39 40 42 42 42 41 40 38 38 39 40 42 41 39 37 38 39 37 35 34 31 29 28 26 24 23 22 21 18 15 13 13 11 11 9 8 9 11 12 12 11 12 13 14 15 17 20 22 25 26 26 27 28 28 26 27 31 35 36 37 39 40 40 42 43 43 43 41 37 36 36 36 38 40 40 41 42 39 34 27
29 31 33 35 37 38 39 39 40 39 38 39 38 37 36 39 41 40 39 38 37 38 36 34 33 30 28 27 25 23 22 21 19 17 14 13 12 11 10 9 7 9 11 11 12 12 12 12 14 16 19 21 23 24 25 26 26 25 25 26 28 31 32 33 36 39 40 39 39 37 36 37 37 35 32 32 34 35 37 37 38 39 41 41 38
29 31 32 34 36 38 38 38 39 39 39 40 40 37 35 37 38 39 39 37 36 36 35 33 32 29 26 25 23 23 22 19 17 15 13 12 11 10 9 8 7 8 10 11 11 11 11 13 15 17 20 22 23 23 23 24 24 23 25 27 29 30 31 32 35 35 35 35 34 32 31 32 33 31 29 30 34 36 37 39 40 40 41 43 45
29 29 31 32 33 35 36 37 38 38 39 40 39 37 37 38 37 38 38 36 36 36 34 33 32 30 26 25 23 22 21 19 17 15 13 12 10 9 8 7 7 8 9 11 12 11 12 14 17 18 20 21 21 21 21 22 22 24 26 27 28 29 29 31 31 32 31 30 29 29 30 31 31 30 30 33 36 38 40 41 40 39 40 43 46
28 29 30 30 32 33 33 34 35 36 38 40 39 38 38 38 36 37 36 35 34 34 34 34 33 30 27 26 24 22 21 21 19 15 13 11 9 8 7 7 7 7 8 10 12 13 12 14 16 18 18 19 19 20 21 21 22 24 25 26 26 28 28 29 29 28 27 27 26 28 30 31 31 32 35 38 38 38 38 37 36 36 38 41 43
26 26 27 28 30 31 31 32 33 34 36 39 39 39 40 40 37 37 37 34 33 34 35 34 31 28 27 26 26 24 22 21 20 17 14 12 9 8 8 7 6 7 8 10 11 11 12 14 17 17 16 17 18 20 21 21 22 23 24 25 26 27 27 28 28 27 26 27 28 29 30 32 34 36 36 36 35 35 35 35 35 35 35 35 35
25 24 26 26 28 30 32 32 31 32 35 36 35 36 39 40 39 41 41 38 34 32 31 30 29 28 26 25 25 25 23 22 20 18 17 14 11 9 8 6 6 7 9 9 9 10 13 15 16 14 15 17 19 20 21 22 23 25 26 26 26 26 27 27 27 28 28 29 30 31 32 33 35 36 34 33 33 34 35 34 33 31 31 32 29
26 26 26 26 27 30 31 32 32 32 34 35 35 36 37 38 42 47 48 44 39 32 27 26 28 29 27 26 25 23 22 23 23 20 18 15 12 10 8 6 6 8 9 8 8 10 13 13 12 13 17 20 22 23 24 24 25 26 27 28 28 27 27 27 27 28 28 30 31 32 33 34 33 33 33 32 33 35 34 32 30 30 31 29 22
26 26 27 26 27 28 29 31 33 32 33 33 33 34 35 37 42 46 43 41 41 37 32 31 31 30 30 31 29 26 24 25 24 19 16 14 11 10 8 7 7 8 7 6 7 9 10 10 12 15 18 20 22 23 24 25 26 26 26 27 28 29 28 27 28 28 30 31 31 32 32 32 31 32 32 31 32 34 33 31 29 29 30 26 20
23 24 25 26 27 29 29 30 32 32 32 32 30 29 28 30 37 40 37 34 36 34 32 34 35 34 33 31 30 29 28 26 23 17 14 13 11 9 8 6 6 6 4 5 6 7 7 10 13 16 17 18 20 21 22 24 25 26 27 26 27 28 28 28 28 30 31 32 32 32 32 31 30 32 31 30 32 33 31 31 29 27 26 23 17
21 22 25 27 29 31 30 30 31 31 32 32 31 30 27 23 27 32 31 28 27 26 25 28 31 32 32 29 25 24 24 22 19 16 14 13 11 9 8 7 6 5 4 4 4 4 8 10 13 15 16 17 19 20 21 23 23 25 27 27 27 27 28 28 30 31 32 32 32 32 32 31 30 31 31 30 31 32 30 30 27 24 24 23 17
23 24 27 29 31 32 30 30 32 31 30 30 31 34 33 24 19 21 22 20 19 19 20 22 25 26 27 26 25 23 20 18 17 16 15 13 11 10 9 8 6 5 4 3 2 5 7 9 11 14 16 17 18 20 21 22 23 24 25 26 27 28 28 30 32 32 32 32 32 31 31 32 32 32 31 30 30 30 28 27 26 23 24 24 21
29 27 27 28 29 30 30 30 32 32 32 31 31 35 36 27 19 19 21 20 19 19 19 20 22 22 22 22 22 21 19 18 18 17 15 13 11 10 10 9 7 5 4 2 4 6 8 9 11 13 15 17 19 21 21 22 23 24 24 25 27 30 32 33 33 33 32 32 32 32 32 33 33 32 31 30 29 27 26 26 26 24 21 19 18
33 30 29 30 29 29 30 33 33 31 32 32 32 33 34 30 25 26 27 24 21 22 21 21 21 21 20 19 18 18 18 18 18 17 15 13 11 11 11 10 8 5 2 1 4 7 8 10 12 14 15 17 19 20 21 23 24 25 26 27 28 30 32 33 33 32 32 32 32 32 33 34 33 32 30 30 28 27 25 25 23 20 19 17 15
32 28 28 30 29 28 31 35 34 31 31 33 32 30 30 30 29 30 29 26 24 25 25 24 24 23 22 20 19 18 18 18 17 16 14 12 11 11 10 10 9 5 2 1 4 7 8 10 12 14 16 18 19 20 21 23 25 25 27 29 29 30 32 32 32 32 33 33 32 33 35 35 34 32 31 29 28 26 24 22 21 19 20 20 17
31 27 27 31 31 28 29 33 34 32 32 32 31 30 29 28 28 28 28 28 27 26 25 26 26 24 22 22 20 19 18 18 16 15 13 12 11 10 10 9 8 5 1 2 5 7 8 10 12 14 16 18 20 21 22 23 25 27 28 29 30 31 32 32 31 32 33 33 33 34 36 35 34 33 31 29 28 27 25 24 23 22 23 23 21
31 29 28 31 31 28 28 31 33 33 31 30 29 28 27 27 27 27 26 26 27 26 26 28 29 26 23 23 22 20 19 18 17 15 13 12 11 10 9 8 6 3 1 3 6 7 9 11 12 15 17 19 20 22 23 24 26 27 28 29 30 30 31 31 32 33 33 32 32 34 36 36 35 34 32 29 28 27 26 24 23 23 25 27 24
32 31 30 30 31 29 28 30 31 31 29 28 28 27 26 26 27 26 25 26 27 27 27 28 28 27 26 26 25 24 23 21 19 17 14 12 11 9 8 7 5 3 2 4 5 7 10 11 13 15 17 19 20 22 23 24 26 27 28 29 29 30 31 31 32 33 33 32 32 35 37 37 36 35 32 30 28 28 27 25 22 21 24 25 21
30 29 29 30 30 30 29 29 31 30 29 28 28 28 27 26 26 25 25 26 26 26 26 26 24 25 27 29 29 28 26 23 21 19 15 13 12 10 8 7 5 3 3 3 5 7 9 11 13 15 17 18 20 22 23 24 26 27 28 29 29 29 30 31 32 33 33 31 32 35 37 37 37 36 33 31 29 29 29 28 25 22 21 22 21
28 27 28 30 30 29 30 30 31 30 29 29 29 28 27 26 25 25 25 26 25 25 26 25 23 25 29 32 32 30 28 24 22 20 17 16 14 12 9 7 5 4 3 3 4 7 10 12 13 15 17 18 20 22 23 25 26 27 28 28 28 29 30 31 32 34 33 32 32 35 38 39 38 37 34 32 31 31 30 29 27 25 24 25 26
27 25 27 30 30 29 29 30 31 31 31 30 29 28 27 26 25 25 26 26 25 25 25 23 23 26 30 32 31 29 27 25 23 21 19 17 15 12 10 8 6 4 2 3 5 7 9 12 13 15 17 19 20 22 24 25 26 27 27 28 29 30 31 32 34 34 34 33 33 35 39 40 39 37 34 33 33 33 31 29 28 27 28 28 28
27 26 26 28 30 30 29 28 29 30 30 29 28 28 28 27 26 26 26 26 26 26 24 23 24 27 28 27 25 25 25 24 23 21 19 17 15 12 10 7 5 4 2 3 5 7 10 12 14 16 17 19 21 23 24 25 26 27 28 29 29 30 32 33 35 36 35 33 34 38 40 41 39 37 35 35 34 33 31 30 30 30 29 28 27
28 27 27 28 30 30 29 29 30 30 29 28 28 29 30 30 28 27 27 27 27 27 26 25 26 28 26 22 21 23 23 23 22 21 19 17 14 12 10 7 5 3 2 2 4 7 9 12 14 16 17 18 20 22 23 25 26 27 28 29 30 32 34 33 35 37 35 33 36 40 42 41 40 38 36 36 36 34 32 31 30 28 26 25 26
27 26 26 27 28 28 28 29 29 28 28 29 29 30 31 31 30 29 28 28 28 28 27 28 29 29 25 22 23 24 24 23 22 20 18 16 14 12 9 7 5 3 2 1 3 6 9 11 14 15 16 17 19 20 22 24 25 26 28 29 31 34 35 34 36 38 37 34 37 41 42 41 40 38 37 37 36 34 32 31 29 27 27 26 24
27 26 26 26 26 26 27 28 28 28 29 29 29 29 30 30 29 29 29 29 28 28 28 30 30 28 26 25 25 25 24 23 21 19 18 16 13 11 9 7 5 3 1 1 3 5 8 10 13 15 16 17 17 19 21 23 24 25 27 28 30 33 34 35 39 41 37 34 37 41 41 40 40 39 38 38 37 34 32 32 30 29 28 27 23
27 27 27 26 25 26 26 27 28 28 29 29 29 28 28 28 28 29 30 30 29 29 29 30 30 28 26 26 26 25 24 23 21 19 17 15 12 10 8 6 4 2 0 1 3 5 7 10 13 15 16 17 17 19 21 22 24 26 27 28 30 32 33 37 41 40 35 34 39 42 41 39 40 39 39 39 38 35 34 33 32 29 28 28 26
27 26 27 27 26 27 27 28 28 28 27 28 28 28 27 27 28 29 29 29 30 30 30 29 29 28 27 27 26 25 24 22 20 18 16 13 11 9 7 5 3 2 0 2 3 5 7 9 12 14 16 17 17 19 21 23 24 26 28 29 30 32 35 40 42 39 34 35 40 41 40 39 39 40 40 39 37 36 35 34 33 31 29 30 29
27 26 27 27 27 27 27 28 29 28 27 26 27 26 26 27 27 28 29 29 30 30 29 28 27 27 26 26 25 24 22 21 19 17 14 12 10 8 6 4 3 1 1 2 4 6 8 10 12 14 15 16 17 19 21 23 25 27 29 30 31 34 38 41 41 37 35 37 41 41 40 39 39 39 40 39 38 37 36 34 33 32 31 31 31
26 26 27 27 27 27 28 29 28 27 26 28 28 26 25 26 27 28 28 29 29 29 29 28 27 26 26 25 24 22 21 19 17 15 13 11 9 7 5 3 2 1 2 4 5 7 9 11 13 14 15 16 17 18 21 23 25 27 29 30 32 35 38 40 39 37 36 38 40 40 39 40 40 39 39 39 38 37 36 35 34 33 31 30 30
26 27 27 26 26 26 26 27 26 26 29 32 32 28 27 28 29 28 28 29 29 28 29 28 28 27 26 25 24 22 20 19 17 15 12 11 8 6 5 3 1 1 3 5 6 8 10 12 14 15 16 16 17 18 21 23 25 27 29 31 33 35 37 38 37 37 37 38 39 39 39 40 41 40 39 39 39 38 37 36 36 34 31 29 29
26 26 26 26 26 25 24 25 27 30 32 34 33 31 31 32 31 29 29 30 30 29 28 27 27 27 25 24 23 21 19 18 16 14 12 10 8 6 5 3 1 1 3 5 7 9 11 13 14 15 16 17 17 18 20 22 24 27 30 31 32 34 36 36 36 37 38 38 37 37 38 40 41 40 39 39 39 38 37 37 37 35 32 30 28
Wind_Direction
211 211 211 210 210 209 209 209 209 209 208 205 203 202 203 203 203 202 201 200 201 200 200 201 201 202 203 205 209 212 216 217 218 220 222 226 230 234 239 243 248 256 261 266 268 269 270 270 274 277 278 277 276 274 273 271 270 267 263 261 260 254 253 255 254 273 282 283 286 290 293 298 300 299 299 297 295 295 295 295 295 293 291 290 289
212 212 211 209 210 209 208 207 206 206 206 205 203 202 202 202 201 200 199 200 200 200 201 201 202 204 204 206 210 212 214 215 216 218 221 226 230 235 241 244 250 256 260 265 269 271 272 273 275 278 278 276 274 274 273 272 270 269 266 261 261 258 250 252 256 263 280 284 286 289 292 295 296 296 296 296 295 296 294 294 294 293 290 289 288
213 212 211 209 209 207 205 204 204 204 204 204 203 202 201 200 200 199 199 199 200 201 202 202 202 203 204 206 207 209 211 212 215 220 224 228 231 236 242 246 251 257 260 266 270 271 272 273 275 277 276 274 274 275 275 275 272 269 268 265 262 262 255 249 255 260 271 281 284 287 290 292 291 291 293 294 294 295 294 293 292 291 290 288 287
213 212 211 209 205 203 203 202 202 203 203 204 204 203 200 198 198 198 198 198 199 200 202 203 202 201 201 203 205 207 210 212 216 222 226 229 233 238 243 248 252 257 262 267 270 271 271 272 274 275 275 274 275 278 278 276 275 272 270 269 263 261 260 253 253 257 262 273 278 281 285 288 288 289 293 293 292 293 293 292 290 290 289 287 285
212 211 211 208 202 200 201 201 201 203 203 204 204 202 199 197 196 196 197 198 199 199 200 201 201 201 201 204 206 207 210 213 217 221 226 229 235 239 244 250 256 260 265 267 269 270 270 271 273 274 275 275 277 279 279 278 277 274 271 268 264 261 261 259 255 254 255 261 270 275 277 280 283 286 288 289 290 291 291 289 288 288 288 286 284
211 209 208 206 201 198 198 200 202 203 203 203 202 200 198 196 195 195 197 198 198 198 199 199 200 201 203 205 207 208 210 213 217 220 224 229 234 241 246 251 257 261 265 268 269 270 270 271 273 274 274 276 276 277 278 278 277 274 270 267 264 261 259 258 257 255 254 256 263 269 272 275 279 282 284 284 283 285 288 290 289 287 285 285 284
209 207 206 205 202 199 198 201 203 203 202 201 199 197 196 196 195 195 197 197 197 198 198 199 200 202 204 205 206 208 209 211 215 217 222 229 234 238 244 249 256 262 265 267 268 270 271 270 272 274 275 275 275 276 277 277 274 270 266 264 262 260 257 258 259 258 257 257 260 263 267 272 275 278 282 283 278 276 279 286 289 289 286 283 283
205 204 204 204 204 201 200 202 202 200 199 197 195 195 194 194 195 196 197 197 198 199 199 199 200 201 203 205 205 206 208 210 213 214 219 227 230 233 240 246 254 260 263 267 269 270 271 272 274 276 276 274 274 275 274 272 271 267 262 261 262 261 260 259 256 256 256 257 259 260 263 269 272 273 278 279 275 271 271 273 280 285 286 283 281
202 202 202 204 206 203 200 199 198 196 194 193 193 192 192 192 194 195 196 197 198 199 199 199 199 199 200 202 203 204 208 210 211 213 218 222 223 227 237 244 252 259 263 266 269 270 271 273 275 275 274 273 273 274 274 272 273 274 273 273 271 269 269 268 262 260 259 256 257 259 261 264 266 268 271 270 267 268 271 272 272 276 283 282 278
200 200 202 205 205 201 197 195 193 192 191 191 191 190 190 191 192 194 195 196 197 197 198 199 199 200 199 199 201 203 208 210 208 212 216 216 218 224 234 246 252 257 261 261 262 265 267 269 272 272 271 273 274 275 277 277 276 278 279 281 280 279 281 279 275 273 270 264 263 263 260 261 264 266 267 267 269 269 269 270 268 272 281 280 277
199 200 202 203 201 197 193 191 190 190 190 189 189 188 189 190 191 192 193 194 195 196 197 197 198 199 199 199 201 204 208 207 204 208 210 210 220 232 242 249 250 248 250 253 256 263 268 269 271 272 272 275 278 279 279 279 279 279 281 281 281 280 282 283 283 282 279 276 277 275 270 270 274 277 277 275 275 272 268 266 266 272 279 276 277
198 199 200 198 195 193 190 188 188 189 188 188 188 187 188 188 189 190 191 192 194 194 195 196 195 196 197 199 202 206 206 204 201 202 203 205 216 231 240 241 241 241 244 250 259 265 270 272 273 274 275 278 281 281 281 281 282 283 284 284 283 281 281 281 283 285 284 284 282 280 277 276 279 281 281 280 281 278 274 270 268 272 275 270 271
197 197 196 194 192 190 189 187 187 188 187 187 186 185 185 186 187 189 190 191 192 192 193 194 194 195 197 198 201 204 203 199 198 197 199 205 211 221 232 236 236 241 245 250 260 265 270 275 276 276 278 281 283 283 283 283 285 287 288 286 284 283 282 281 282 283 285 284 282 280 280 280 279 279 279 280 279 278 276 272 269 271 271 268 267
194 193 192 192 191 189 188 187 187 186 186 184 184 184 185 186 187 189 189 189 189 190 191 193 194 195 198 198 200 202 199 194 195 196 198 205 211 217 228 234 235 240 245 250 261 266 268 273 275 277 280 282 283 284 286 288 291 291 289 287 285 285 285 284 283 282 281 279 274 273 275 276 275 275 277 277 274 272 272 270 268 266 264 265 268
191 192 191 191 190 188 187 186 185 184 183 183 183 184 185 186 186 188 188 189 190 191 191 192 194 194 196 197 198 198 196 191 192 197 198 200 208 217 224 230 232 238 246 251 259 265 268 270 273 276 280 283 284 286 290 293 294 293 292 291 289 288 287 285 284 283 280 278 275 273 274 276 276 276 277 277 272 270 270 269 268 267 264 265 266
189 191 191 190 189 188 186 184 183 183 182 181 182 183 184 185 186 187 187 189 190 190 191 191 192 192 193 195 196 195 192 191 193 197 197 196 205 215 220 224 229 235 244 253 260 266 268 270 273 277 281 285 287 291 294 296 297 297 295 293 292 292 291 291 291 289 287 286 285 285 284 284 284 283 282 282 279 276 275 272 267 264 261 261 262
190 191 191 190 188 187 186 184 182 182 181 182 183 184 185 186 187 187 186 186 188 189 190 190 191 191 191 192 194 192 189 192 197 197 194 194 204 213 217 220 224 234 246 256 264 269 269 270 275 281 285 288 290 294 298 299 299 297 295 296 297 298 298 299 299 296 294 293 291 291 290 288 289 288 286 286 284 283 283 277 268 262 254 253 259
192 191 191 190 188 187 186 185 184 183 184 185 185 185 186 186 187 188 187 186 187 188 189 188 187 189 191 191 191 191 189 191 196 195 191 195 205 211 214 218 226 241 254 262 268 273 273 274 279 284 286 289 292 297 300 301 301 300 301 303 303 302 303 305 305 302 301 299 297 295 295 294 293 292 288 286 285 282 280 274 270 267 258 249 258
195 193 193 191 189 188 187 187 187 187 187 188 187 186 187 187 188 188 188 186 185 185 186 184 183 187 190 190 189 189 189 190 192 190 189 197 205 209 213 219 231 247 260 269 272 276 279 281 284 285 287 291 295 298 301 304 305 306 306 306 304 303 305 306 305 305 306 308 308 306 304 302 299 296 291 288 285 281 276 272 269 265 257 253 257
198 196 193 189 188 188 188 189 190 190 190 189 188 187 187 187 186 186 186 184 182 182 182 182 182 184 186 186 188 189 188 188 188 186 189 199 203 206 213 219 231 252 267 272 274 279 284 285 286 287 289 293 297 301 305 306 308 308 307 306 303 302 306 308 310 312 313 312 311 309 308 306 303 299 295 290 288 284 277 272 267 260 254 253 254
196 193 189 188 188 189 190 191 192 192 191 188 186 187 188 188 186 184 182 181 179 178 179 179 179 181 183 185 188 189 187 185 183 183 191 201 201 202 212 217 233 258 267 270 275 282 288 287 287 289 293 297 301 305 308 307 308 308 306 303 301 303 309 313 315 316 314 311 310 308 307 306 304 300 296 292 291 291 287 280 271 262 255 251 250
192 190 189 188 189 189 190 192 191 190 189 186 185 186 188 188 186 182 179 178 176 175 175 176 176 177 181 184 185 183 181 178 177 180 191 199 197 199 210 219 238 260 267 272 278 283 286 287 287 290 295 301 305 307 308 308 309 308 304 303 305 308 313 315 315 315 313 309 307 305 303 303 303 300 297 294 294 297 298 295 286 274 263 255 251
191 190 189 188 189 189 190 191 190 188 187 186 184 183 183 184 183 181 178 175 173 172 173 174 174 174 177 180 178 175 174 175 178 184 191 194 195 200 210 221 238 255 268 277 280 282 284 284 286 293 301 306 307 307 308 309 309 308 307 309 313 315 316 315 313 312 309 306 303 300 300 302 302 299 297 296 298 298 297 297 295 287 276 266 258
189 189 189 188 189 189 188 189 188 187 186 184 182 180 180 180 181 181 179 175 172 171 172 173 172 171 171 172 170 169 171 174 180 187 189 189 195 201 206 218 237 253 267 275 277 279 283 286 292 300 306 306 306 307 309 309 310 311 313 316 318 317 315 312 310 308 306 303 300 298 300 303 302 300 299 298 298 298 296 295 293 290 285 275 265
186 188 188 187 187 186 186 186 187 187 185 183 181 179 178 177 179 180 179 176 172 171 173 174 173 170 168 167 166 167 172 177 180 185 188 191 195 198 202 217 241 259 268 273 277 281 285 292 301 306 307 307 309 311 312 313 313 314 317 318 318 316 314 310 308 307 303 300 299 298 299 303 303 302 302 301 299 298 297 296 295 295 294 285 272
187 187 186 187 185 183 182 182 184 186 186 184 184 182 179 178 178 178 179 178 176 174 173 172 172 170 166 163 163 167 174 180 179 177 179 183 187 192 203 223 247 259 267 275 280 281 285 296 303 306 308 311 313 313 313 314 316 317 318 319 318 316 315 311 309 306 303 301 301 300 299 302 303 303 303 303 301 299 299 300 299 298 298 294 281
188 187 186 185 183 181 180 180 182 184 185 185 185 184 183 181 179 177 178 178 176 173 171 171 172 169 162 159 163 167 174 178 175 170 169 169 169 180 201 229 249 255 268 279 277 274 283 294 303 312 321 324 324 323 321 321 323 324 323 321 319 317 315 312 308 305 303 302 302 302 301 301 302 302 303 302 301 301 301 300 298 296 296 296 289
189 188 186 183 182 183 183 181 181 183 185 186 185 184 184 184 182 181 181 179 174 172 173 176 176 170 163 161 162 165 173 180 177 169 166 165 163 174 195 224 240 247 266 276 269 273 286 300 317 332 338 337 335 332 330 328 327 326 324 322 321 319 316 314 309 306 304 303 303 304 303 302 302 303 304 303 302 303 303 300 296 295 297 297 293
190 186 184 183 183 184 185 185 184 184 184 186 187 187 187 187 185 182 182 181 179 177 178 181 181 175 169 166 165 167 176 180 173 161 157 161 166 176 190 210 226 237 256 269 269 280 300 324 341 345 343 338 333 330 329 328 326 324 324 323 322 320 318 315 311 309 308 308 307 305 304 303 303 305 305 303 303 304 304 301 298 296 297 296 292
187 185 183 184 184 184 185 187 187 186 185 183 183 183 186 190 188 183 181 183 185 185 186 186 183 177 172 172 174 175 173 167 162 160 161 165 168 173 180 191 205 215 231 257 272 296 333 350 348 344 340 333 328 325 325 325 323 321 322 322 321 319 318 315 312 311 312 311 309 307 305 305 305 307 307 305 305 305 305 301 298 297 296 294 291
186 187 188 189 188 186 186 186 187 187 185 182 178 173 172 178 185 185 182 182 184 187 189 186 181 177 174 172 171 169 161 154 158 165 166 164 163 164 169 173 174 179 205 247 281 339 3 353 343 341 336 329 324 322 323 322 319 318 318 319 319 318 315 313 315 315 314 313 310 308 307 307 308 308 307 306 305 305 305 302 298 294 292 289 287
192 193 194 194 191 188 188 187 186 184 181 181 179 172 164 158 166 177 178 174 172 173 174 172 170 172 172 166 159 158 158 158 161 161 158 159 159 158 160 159 154 170 209 256 336 9 6 351 339 335 330 324 322 323 322 318 315 315 316 316 317 316 314 314 316 316 314 313 311 309 310 310 310 309 307 307 307 305 304 303 299 294 291 288 285
202 199 197 193 190 191 191 188 184 181 179 178 179 175 168 159 153 158 161 160 157 155 156 158 157 159 164 164 161 161 162 160 157 155 156 156 153 153 157 153 150 174 218 273 7 11 3 350 337 328 323 322 322 322 319 315 314 315 315 312 312 312 313 316 318 316 315 313 311 311 312 312 312 311 308 308 307 304 302 301 298 295 293 290 286
209 206 200 193 190 192 192 187 183 181 180 179 179 177 174 167 157 153 153 154 153 152 152 154 155 155 161 167 169 166 161 156 155 156 155 151 152 162 167 164 164 182 221 335 13 8 359 346 333 327 325 324 322 319 317 316 317 316 314 311 310 310 314 318 319 317 315 314 313 313 315 315 314 313 311 309 308 305 302 300 297 294 292 292 288
213 211 204 196 193 193 192 188 183 181 181 181 180 179 175 170 163 159 156 154 151 151 153 158 161 162 162 165 168 166 160 155 154 153 150 154 166 175 176 175 181 192 200 23 12 6 356 340 329 327 326 324 322 320 317 317 317 315 312 312 311 313 316 319 318 317 316 315 314 315 317 317 316 314 312 310 308 306 304 300 296 291 290 292 290
211 208 202 198 195 192 189 188 185 183 182 182 181 178 173 169 165 161 157 154 150 149 151 157 161 161 162 164 165 162 158 156 153 149 152 167 181 187 188 187 189 191 173 34 15 5 355 341 333 331 331 328 326 324 321 318 317 315 313 312 313 315 317 318 317 318 316 314 314 317 319 319 318 317 314 311 307 306 305 301 296 293 291 292 292
207 205 201 197 194 188 184 185 185 184 182 179 178 175 171 167 164 159 154 151 148 145 147 152 154 156 159 163 163 160 156 153 148 147 158 176 186 191 195 194 188 178 114 39 18 360 351 347 342 339 337 334 331 328 324 320 318 316 314 314 315 315 316 316 316 317 315 312 315 320 322 321 320 319 316 313 309 309 306 300 294 293 293 293 292
207 206 202 195 189 183 179 179 180 180 177 174 174 173 169 165 163 158 153 150 148 147 150 154 157 159 160 161 160 157 154 152 152 157 167 178 183 185 187 187 177 151 89 41 15 354 349 349 346 343 341 336 332 329 324 320 319 318 316 316 317 317 317 317 318 319 316 313 317 322 324 323 322 321 318 313 311 311 309 305 299 295 296 296 291
208 206 201 192 184 179 177 175 175 175 173 171 171 171 168 165 162 158 154 151 149 150 154 158 163 166 164 160 157 157 158 160 164 168 171 175 180 181 180 178 166 133 92 43 8 351 347 348 346 343 341 338 334 331 326 322 321 320 318 318 319 320 320 320 321 320 317 314 317 324 326 325 323 321 319 315 313 312 311 309 304 296 294 295 290
203 199 192 186 180 176 174 172 172 173 172 170 170 169 168 166 163 158 154 151 151 155 160 163 168 172 170 165 164 166 168 168 169 171 172 174 176 176 172 169 157 128 94 37 7 354 347 346 346 342 341 341 337 333 330 327 324 322 322 322 321 321 321 321 321 320 317 315 318 324 327 326 324 323 320 317 315 314 312 310 306 299 294 294 292
196 189 184 181 176 171 171 172 174 174 172 169 169 167 165 164 161 156 154 153 154 157 162 166 170 173 173 171 172 175 176 173 170 172 174 173 172 171 167 161 147 124 92 25 7 357 348 346 345 343 342 343 340 337 335 332 328 325 325 325 323 321 321 321 321 320 318 317 320 325 327 326 325 323 320 317 318 316 313 311 308 303 301 297 293
188 181 178 176 172 170 171 173 172 171 168 166 166 164 160 158 157 155 154 153 154 155 158 163 168 170 170 171 174 179 180 175 171 172 172 170 169 167 161 150 139 126 97 28 7 357 349 346 346 345 345 345 343 341 337 333 330 328 327 325 323 321 320 320 321 322 320 320 323 328 328 327 325 323 320 319 320 318 316 314 311 306 304 300 293
184 178 174 172 171 172 172 170 166 166 165 165 162 159 156 155 156 155 153 152 154 157 157 160 163 164 164 166 172 177 177 173 171 171 171 168 166 164 158 151 145 132 93 31 5 356 351 348 347 347 348 348 346 344 339 336 333 331 328 325 323 321 319 318 321 323 323 323 327 329 329 328 326 325 323 322 322 320 317 316 313 308 304 300 295
177 173 170 169 169 169 168 165 163 162 161 158 155 154 155 155 155 155 153 153 155 157 157 158 160 160 159 164 171 174 173 171 170 170 169 166 164 162 159 157 155 146 117 26 359 355 352 350 349 349 349 350 349 347 345 344 341 337 331 327 323 321 319 319 322 324 324 326 329 331 331 329 327 326 325 324 324 322 320 318 317 313 308 305 300
171 167 164 163 162 161 161 161 159 156 154 153 152 154 156 156 154 153 152 152 153 155 156 158 159 159 160 165 170 171 171 170 170 169 166 163 162 161 160 162 163 160 155 351 351 351 351 352 352 350 349 350 351 351 350 350 349 346 340 333 325 321 320 322 324 325 326 329 332 332 330 329 328 327 326 326 325 323 322 320 319 316 312 309 304
166 163 159 157 155 155 155 156 154 153 153 153 153 154 155 155 153 151 151 152 153 153 155 157 160 161 164 166 169 170 170 170 169 167 164 161 160 161 163 164 164 163 202 321 337 348 353 356 355 352 349 348 349 351 352 353 352 351 348 341 332 326 326 327 328 328 329 333 336 334 331 330 329 328 327 327 326 325 323 322 321 318 314 312 310
159 156 154 153 151 150 151 152 152 152 153 153 153 152 151 150 149 147 148 150 152 153 155 158 162 164 165 166 167 168 169 169 167 165 162 161 162 164 166 165 164 165 244 332 342 350 357 359 358 354 350 347 348 350 353 354 353 352 351 346 338 333 334 334 332 331 333 337 337 335 333 332 331 330 329 329 328 327 327 326 325 322 319 318 315
152 150 150 150 148 147 149 151 151 151 151 151 149 148 147 146 145 145 146 149 151 153 156 159 162 164 164 164 166 167 168 167 166 164 162 163 166 168 169 167 162 143 46 16 4 0 2 2 359 355 351 348 349 351 353 354 355 354 351 347 342 341 341 339 336 335 338 340 339 338 337 335 333 332 332 331 331 331 330 330 328 325 323 322 319
146 145 146 146 146 148 150 152 151 151 150 147 145 143 143 144 144 144 146 149 151 154 157 159 160 162 162 163 165 166 166 166 165 163 163 166 168 169 168 165 152 79 27 22 14 9 7 3 358 355 352 349 350 352 354 354 355 354 351 348 347 346 344 341 339 340 343 342 341 340 340 339 337 336 334 334 334 333 332 333 332 328 323 321 319
140 141 142 143 144 147 149 149 148 147 146 144 142 141 142 143 142 143 146 148 150 153 157 158 159 161 162 163 165 166 165 164 164 163 164 167 169 170 170 166 153 50 17 14 11 9 7 1 355 352 350 348 349 352 354 354 354 353 352 351 349 345 342 342 343 345 345 344 342 343 343 342 341 339 338 337 338 337 335 335 335 332 326 321 319
134 136 137 138 139 140 141 141 140 140 140 140 139 138 139 141 142 144 147 149 150 152 156 158 160 162 163 164 164 164 163 162 162 163 165 167 169 171 175 175 154 27 9 6 5 6 4 358 353 350 348 346 347 351 352 353 355 355 353 352 348 343 342 343 345 345 345 345 344 344 345 345 344 342 341 340 340 339 338 338 337 336 332 325 319